Preview of NWS' New Version of Forecast
This preview is not operational and should not be used for support decisions.

Regional Weather Roundup (RWR)

Issued by National Weather Service (NWS)

                            
000
ASUS45 KCYS 221710
RWRWY 

WYOMING REGIONAL WEATHER ROUNDUP
NATIONAL WEATHER SERVICE CHEYENNE WY
1100 AM MDT MON APR 22 2019

NOTE:  "FAIR" INDICATES FEW OR NO CLOUDS BELOW 12,000 FEET
WITH NO SIGNIFICANT WEATHER AND/OR OBSTRUCTIONS TO VISIBILITY.

WYZ001-221800-
YELLOWSTONE NATIONAL PARK
  
CITY           SKY/WX    TMP DP  RH WIND       PRES   REMARKS
LK YELLOWSTONE   N/A     39  27  62 E3        30.26S                  
W YELLOWSTONE  NOT AVBL                                               

$$
WYZ002>013-054>058-071-098>099-221800-
NORTHERN WYOMING
  
CITY           SKY/WX    TMP DP  RH WIND       PRES   REMARKS
JACKSON        CLOUDY    43  35  73 CALM      30.24R                  
CODY           CLOUDY    42  35  76 CALM      30.29S                  
GREYBULL       CLOUDY    46  41  82 CALM      30.28S                  
WORLAND        CLOUDY    45  39  79 CALM      30.28                   
SHERIDAN       FAIR      53  35  50 SE13      30.26F                  
BUFFALO        FAIR      48  36  63 SE12      30.29R                  
GILLETTE       CLOUDY    48  38  68 MISG      30.29S                  
HULETT         PTSUNNY   50  37  62 N6        30.29                   
NEWCASTLE      PTSUNNY   46  32  57 CALM      30.30                   

$$
WYZ014>020-022>026-101>103-221800-
CENTRAL WYOMING
  
CITY           SKY/WX    TMP DP  RH WIND       PRES   REMARKS
BIG PINEY      CLOUDY    40  36  86 VRB6      30.25S                  
PINEDALE       CLOUDY    41  36  81 CALM      30.25                   
DUBOIS         CLOUDY    36  32  87 E8        30.25  WCI  29          
LANDER         LGT RAIN  41  37  86 E5        30.27S                  
RIVERTON       LGT RAIN  40  37  89 E10       30.29S WCI  33          
CASPER         PTSUNNY   41  35  79 E17       30.27S                  
DOUGLAS        CLOUDY    41  37  86 SE8       30.31S                  

$$
WYZ021-027>030-104>119-221800-
SOUTHERN WYOMING
  
CITY           SKY/WX    TMP DP  RH WIND       PRES   REMARKS
EVANSTON       CLOUDY    37  34  89 N5        30.22S WCI  33          
KEMMERER       CLOUDY    37  34  87 E12G17    30.25  WCI  30          
ROCK SPRINGS   CLOUDY    40  35  83 NE18      30.24R WCI  31          
DIXON          FAIR      52  35  52 S5        30.18S                  
RAWLINS        CLOUDY    41  35  79 NE17      30.23R                  
SARATOGA       FAIR      46  37  71 NW7       30.20S                  
LARAMIE        CLOUDY    42  35  76 E10       30.23R                  
CHEYENNE       CLOUDY    35  35 100 NE9       30.28R WCI  28          
TORRINGTON     CLOUDY    43  38  82 W5        30.30R                  
PINE BLUFFS    CLOUDY    37  34  87 NE10      30.29R WCI  30          

$$